Flag for Japan

Past Weather in Kitakyushu, Japan — Yesterday and Last 2 Weeks

Now
66 °F

Clear.


Feels Like: 66 °F
Forecast: 77 / 65 °F
Wind: 6 mph from Northwest

Location: Kitakyushu Airport
Current Time: Sep 21, 2020 at 12:32:03 am
Latest Report: Sep 20, 2020 at 11:00 pm
Visibility: 10 mi
Pressure30.01 "Hg
Humidity: 68%
Dew Point: 55 °F
Location of KitakyushuLocation

Past Weather in Kitakyushu — Graph

°F

Kitakyushu Temperature Yesterday

Maximum temperature yesterday: 79 °F (at 10:00 am)
Minimum temperature yesterday: 68 °F (at 5:00 am)
Average temperature yesterday: 73 °F

High & Low Weather Summary for the Past Weeks

 TemperatureHumidityPressure
High90 °F (Sep 8, 1:00 pm)94% (Sep 11, 4:00 am)30.01 "Hg (Sep 11, 4:00 am)
Low68 °F (Sep 18, 9:00 am)34% (Sep 20, 3:00 pm)28.94 "Hg (Sep 7, 5:00 am)
Average76 °F76%29.82 "Hg
* Reported Sep 5 10:00 pm — Sep 20 10:00 pm, Kitakyushu. Weather by CustomWeather, © 2020

Note: Actual official high and low records may vary slightly from our data, if they occured in-between our weather recording intervals... More about our weather records

Kitakyushu Weather History for the Previous 24 Hours

Scroll right to see more
 ConditionsComfort  
Time TempWeatherWind HumidityBarometerVisibility
10:00 pm
Sun, Sep 20
68 °FPassing clouds.8 mph64%30.01 "HgN/A
9:00 pm70 °FClear.7 mph60%30.01 "Hg10 mi
8:00 pm70 °FClear.12 mph53%30.01 "Hg10 mi
7:00 pm72 °FClear.12 mph50%29.98 "Hg10 mi
6:00 pm73 °FSunny.14 mph47%29.98 "Hg10 mi
5:00 pm75 °FScattered clouds.16 mph44%29.95 "HgN/A
4:00 pm77 °FScattered clouds.16 mph42%29.95 "HgN/A
3:00 pm77 °FScattered clouds.16 mph34%29.95 "HgN/A
2:00 pm77 °FPartly sunny.17 mph39%29.95 "HgN/A
1:00 pm77 °FBroken clouds.15 mph39%29.95 "HgN/A
12:00 pm77 °FBroken clouds.14 mph44%29.98 "HgN/A
11:00 am77 °FPartly sunny.13 mph36%29.98 "HgN/A
10:00 am79 °FPartly sunny.7 mph45%29.98 "HgN/A
9:00 am75 °FScattered clouds.2 mph61%30.01 "HgN/A
8:00 am72 °FPassing clouds.3 mph65%29.98 "HgN/A
7:00 am70 °FPassing clouds.5 mph69%29.98 "HgN/A
6:00 am68 °FPassing clouds.3 mph78%29.98 "HgN/A
5:00 am68 °FPassing clouds.2 mph73%29.95 "HgN/A
4:00 am70 °FPassing clouds.3 mph69%29.95 "HgN/A
3:00 am70 °FPassing clouds.5 mph69%29.95 "HgN/A
2:00 am70 °FPassing clouds.5 mph64%29.98 "HgN/A
1:00 am72 °FPassing clouds.5 mph65%29.98 "HgN/A
12:00 am72 °FPartly cloudy.1 mph61%29.98 "HgN/A
Weather by CustomWeather, © 2020

See weather overview